When you browse on this site, cookies collect data to enhance your experience and personalize the content and advertising you see.
Visit our Privacy Policy to learn more. By continuing to use the site, you agree to this use of cookies and data.
  • en Suisse
  • Liste des pays
  • À 7 jours
  • Température de l'eau
  • Carte météo
  • Widgets météo
  • user-avatar
    Se connecter

    Météo par heure à Dalat

    Ce jour, 29 Mai, Vendredi

    Heure Température Précipitation Vent Pression Humidité
    00:00 +18°C° 0.1 mm 0 m/s 652 mmHg 94%
    01:00 +18°C° 0 mm 0 m/s 652 mmHg 93%
    02:00 +18°C° 0 mm 0 m/s 652 mmHg 94%
    03:00 +18°C° 0 mm 0 m/s 651 mmHg 95%
    04:00 +17°C° 0 mm 0 m/s 651 mmHg 96%
    05:00 +18°C° 0 mm 0 m/s 652 mmHg 94%
    06:00 +19°C° 0 mm 0 m/s 653 mmHg 91%
    07:00 +21°C° 0 mm 0 m/s 654 mmHg 90%
    08:00 +23°C° 0 mm 0 m/s 654 mmHg 80%
    09:00 +26°C° 0 mm 1 m/s 655 mmHg 70%
    10:00 +28°C° 0 mm 1 m/s 655 mmHg 60%
    11:00 +28°C° 1.4 mm 1 m/s 655 mmHg 65%
    12:00 +27°C° 1.4 mm 1 m/s 654 mmHg 70%
    13:00 +27°C° 0 mm 1 m/s 654 mmHg 74%
    14:00 +26°C° 2 mm 1 m/s 653 mmHg 79%
    15:00 +25°C° 2 mm 1 m/s 652 mmHg 83%
    16:00 +25°C° 2 mm 1 m/s 652 mmHg 88%
    17:00 +23°C° 0.8 mm 1 m/s 652 mmHg 91%
    18:00 +22°C° 0.8 mm 1 m/s 652 mmHg 94%
    19:00 +21°C° 0.8 mm 1 m/s 652 mmHg 97%
    20:00 +21°C° 0.1 mm 1 m/s 652 mmHg 97%
    21:00 +19°C° 0.1 mm 0 m/s 653 mmHg 97%
    22:00 +18°C° 0.1 mm 0 m/s 653 mmHg 97%
    23:00 +18°C° 0 mm 0 m/s 653 mmHg 97%

    Demain, 30 Mai, Samedi

    Heure Température Précipitation Vent Pression Humidité
    00:00 +18°C° 0 mm 0 m/s 653 mmHg 97%
    01:00 +17°C° 0 mm 0 m/s 653 mmHg 97%
    02:00 +17°C° 0 mm 0 m/s 652 mmHg 95%
    03:00 +17°C° 0 mm 0 m/s 652 mmHg 94%
    04:00 +16°C° 0 mm 0 m/s 652 mmHg 93%
    05:00 +17°C° 0 mm 0 m/s 653 mmHg 90%
    06:00 +18°C° 0 mm 0 m/s 653 mmHg 87%
    07:00 +20°C° 0 mm 0 m/s 654 mmHg 84%
    08:00 +22°C° 0 mm 0 m/s 655 mmHg 72%
    09:00 +27°C° 0 mm 1 m/s 655 mmHg 60%
    10:00 +29°C° 0 mm 1 m/s 656 mmHg 48%
    11:00 +29°C° 0.4 mm 1 m/s 656 mmHg 54%
    12:00 +28°C° 0.4 mm 1 m/s 655 mmHg 59%
    13:00 +28°C° 0.4 mm 2 m/s 655 mmHg 65%
    14:00 +27°C° 1.9 mm 1 m/s 654 mmHg 72%
    15:00 +26°C° 1.9 mm 1 m/s 653 mmHg 79%
    16:00 +25°C° 1.9 mm 1 m/s 653 mmHg 85%
    17:00 +24°C° 1.5 mm 1 m/s 653 mmHg 88%
    18:00 +20°C° 1.5 mm 0 m/s 653 mmHg 92%
    19:00 +19°C° 1.5 mm 0 m/s 653 mmHg 95%
    20:00 +19°C° 0.2 mm 0 m/s 653 mmHg 95%
    21:00 +18°C° 0.2 mm 0 m/s 653 mmHg 95%
    22:00 +18°C° 0.2 mm 0 m/s 653 mmHg 95%
    23:00 +18°C° 0 mm 0 m/s 653 mmHg 94%

    Après-demain, 31 Mai, Dimanche

    Heure Température Précipitation Vent Pression Humidité
    00:00 +18°C° 0 mm 0 m/s 653 mmHg 94%
    01:00 +18°C° 0 mm 0 m/s 653 mmHg 93%
    02:00 +17°C° 0 mm 0 m/s 653 mmHg 93%
    03:00 +17°C° 0 mm 0 m/s 652 mmHg 93%
    04:00 +17°C° 0 mm 0 m/s 652 mmHg 93%
    05:00 +18°C° 0 mm 0 m/s 653 mmHg 91%
    06:00 +19°C° 0 mm 0 m/s 654 mmHg 89%
    07:00 +20°C° 0 mm 0 m/s 655 mmHg 86%
    08:00 +23°C° 0 mm 0 m/s 655 mmHg 75%
    09:00 +25°C° 0 mm 0 m/s 656 mmHg 64%
    10:00 +30°C° 0 mm 1 m/s 656 mmHg 52%
    11:00 +29°C° 0.6 mm 1 m/s 656 mmHg 56%
    12:00 +29°C° 0.6 mm 1 m/s 655 mmHg 60%
    13:00 +29°C° 0.6 mm 1 m/s 655 mmHg 64%
    14:00 +28°C° 1.9 mm 1 m/s 654 mmHg 71%
    15:00 +27°C° 1.9 mm 1 m/s 653 mmHg 77%
    16:00 +26°C° 1.9 mm 1 m/s 652 mmHg 83%
    17:00 +24°C° 0.7 mm 1 m/s 652 mmHg 87%
    18:00 +23°C° 0.7 mm 1 m/s 652 mmHg 92%
    19:00 +20°C° 0.7 mm 0 m/s 652 mmHg 96%
    20:00 +19°C° 1.6 mm 0 m/s 652 mmHg 96%
    21:00 +19°C° 1.6 mm 0 m/s 653 mmHg 97%
    22:00 +18°C° 1.6 mm 0 m/s 653 mmHg 98%
    23:00 +18°C° 0.3 mm 0 m/s 653 mmHg 97%

    1 Juin, Lundi

    Heure Température Précipitation Vent Pression Humidité
    00:00 +18°C° 0.3 mm 0 m/s 652 mmHg 96%
    01:00 +18°C° 0.3 mm 0 m/s 652 mmHg 96%
    02:00 +18°C° 0 mm 0 m/s 652 mmHg 95%
    03:00 +18°C° 0 mm 0 m/s 652 mmHg 95%
    04:00 +17°C° 0 mm 0 m/s 652 mmHg 94%
    05:00 +18°C° 0 mm 0 m/s 652 mmHg 93%
    06:00 +19°C° 0 mm 0 m/s 653 mmHg 91%
    07:00 +20°C° 0 mm 0 m/s 653 mmHg 89%
    08:00 +23°C° 0 mm 0 m/s 654 mmHg 78%
    09:00 +27°C° 0 mm 1 m/s 655 mmHg 67%
    10:00 +29°C° 0 mm 1 m/s 656 mmHg 56%
    11:00 +29°C° 1 mm 1 m/s 655 mmHg 60%
    12:00 +29°C° 1 mm 1 m/s 654 mmHg 64%
    13:00 +26°C° 1 mm 0 m/s 654 mmHg 68%
    14:00 +25°C° 1.9 mm 0 m/s 653 mmHg 73%
    15:00 +24°C° 1.9 mm 0 m/s 652 mmHg 79%
    16:00 +25°C° 1.9 mm 1 m/s 651 mmHg 85%
    17:00 +22°C° 1 mm 0 m/s 651 mmHg 88%
    18:00 +20°C° 1 mm 0 m/s 651 mmHg 92%
    19:00 +19°C° 1 mm 0 m/s 651 mmHg 95%
    20:00 +19°C° 0.3 mm 0 m/s 652 mmHg 95%
    21:00 +18°C° 0.3 mm 0 m/s 652 mmHg 96%
    22:00 +18°C° 0.3 mm 0 m/s 652 mmHg 96%
    23:00 +18°C° 0.9 mm 0 m/s 652 mmHg 96%

    2 Juin, Mardi

    Heure Température Précipitation Vent Pression Humidité
    00:00 +18°C° 0.9 mm 0 m/s 652 mmHg 96%
    01:00 +18°C° 0.9 mm 0 m/s 651 mmHg 96%
    02:00 +17°C° 0.9 mm 0 m/s 651 mmHg 96%
    03:00 +17°C° 0.9 mm 0 m/s 651 mmHg 96%
    04:00 +17°C° 0.9 mm 0 m/s 651 mmHg 96%
    05:00 +18°C° 0.2 mm 0 m/s 651 mmHg 94%
    06:00 +19°C° 0.2 mm 0 m/s 652 mmHg 93%
    07:00 +20°C° 0.2 mm 0 m/s 652 mmHg 91%
    08:00 +21°C° 0.8 mm 0 m/s 653 mmHg 86%
    09:00 +25°C° 0.8 mm 1 m/s 653 mmHg 81%
    10:00 +26°C° 0.8 mm 1 m/s 654 mmHg 76%
    11:00 +26°C° 1 mm 1 m/s 653 mmHg 75%
    12:00 +27°C° 1 mm 1 m/s 653 mmHg 74%
    13:00 +27°C° 1 mm 1 m/s 653 mmHg 73%
    14:00 +26°C° 1.2 mm 1 m/s 652 mmHg 77%
    15:00 +25°C° 1.2 mm 1 m/s 652 mmHg 81%
    16:00 +25°C° 1.2 mm 1 m/s 651 mmHg 85%
    17:00 +23°C° 0.6 mm 1 m/s 651 mmHg 88%
    18:00 +22°C° 0.6 mm 1 m/s 651 mmHg 92%
    19:00 +21°C° 0.6 mm 1 m/s 651 mmHg 95%
    20:00 +20°C° 0 mm 1 m/s 651 mmHg 95%
    21:00 +20°C° 0 mm 1 m/s 651 mmHg 95%
    22:00 +20°C° 0 mm 1 m/s 652 mmHg 94%
    23:00 +20°C° 0.1 mm 1 m/s 651 mmHg 94%

    3 Juin, Mercredi

    Heure Température Précipitation Vent Pression Humidité
    00:00 +19°C° 0.1 mm 1 m/s 651 mmHg 93%
    01:00 +19°C° 0.1 mm 1 m/s 651 mmHg 93%
    02:00 +19°C° 0.2 mm 1 m/s 651 mmHg 93%
    03:00 +19°C° 0.2 mm 1 m/s 650 mmHg 93%
    04:00 +19°C° 0.2 mm 1 m/s 650 mmHg 93%
    05:00 +20°C° 0 mm 1 m/s 651 mmHg 91%
    06:00 +21°C° 0 mm 1 m/s 651 mmHg 89%
    07:00 +22°C° 0 mm 1 m/s 652 mmHg 87%
    08:00 +24°C° 0.3 mm 1 m/s 652 mmHg 80%
    09:00 +26°C° 0.3 mm 1 m/s 653 mmHg 73%
    10:00 +27°C° 0.3 mm 1 m/s 654 mmHg 66%
    11:00 +27°C° 1.9 mm 1 m/s 653 mmHg 70%
    12:00 +27°C° 1.9 mm 1 m/s 652 mmHg 74%
    13:00 +26°C° 1.9 mm 1 m/s 652 mmHg 78%
    14:00 +26°C° 1.9 mm 1 m/s 651 mmHg 81%
    15:00 +25°C° 1.9 mm 1 m/s 651 mmHg 84%
    16:00 +24°C° 1.9 mm 1 m/s 650 mmHg 88%
    17:00 +21°C° 0.8 mm 0 m/s 650 mmHg 90%
    18:00 +20°C° 0.8 mm 0 m/s 650 mmHg 92%
    19:00 +19°C° 0.8 mm 0 m/s 650 mmHg 95%
    20:00 +19°C° 0.1 mm 0 m/s 651 mmHg 95%
    21:00 +20°C° 0.1 mm 1 m/s 651 mmHg 95%
    22:00 +20°C° 0.1 mm 1 m/s 651 mmHg 95%
    23:00 +20°C° 0 mm 1 m/s 651 mmHg 95%
    Voir plus